Montreal Mirabel, Quebec

10:39 PM EDT on April 22, 2018 (GMT -0400)
Montreal Mirabel

Weather History for CYMX - March, 2013

Change the Weather History Date:

Monday, March 18, 2013

  Actual Average Record
Temperature  
Mean Temperature 13 °F -  
Max Temperature 26 °F 30 °F 66 °F (2012)
Min Temperature 0 °F 15 °F -2 °F (2018)
Degree Days  
Heating Degree Days 52    
Moisture  
Dew Point -1 °F    
Average Humidity 55    
Maximum Humidity 72    
Minimum Humidity 33    
Precipitation  
Precipitation 0.00 in - - ()
Sea Level Pressure  
Sea Level Pressure 30.37 in    
Wind  
Wind Speed 4 mph ()    
Max Wind Speed 13 mph    
Max Gust Speed 18 mph    
Averages and records for this station are not official NWS values.
T = Trace of Precipitation, MM = Missing Value Source: Averaged Metar Reports

Daily Weather History Graph

Daily Weather History Graph

Search for Another Location

Airport or City:

Astronomy

Mar. 18, 2013 Rise Set
Actual Time 7:02 AM EDT 7:06 PM EDT
Civil Twilight 6:33 AM EDT 7:35 PM EDT
Nautical Twilight 5:58 AM EDT 8:10 PM EDT
Astronomical Twilight 5:22 AM EDT 8:46 PM EDT
Moon 10:42 AM EDT (3/18) 1:20 AM EDT (3/18)
Length of Visible Light 13h 02m
Length of Day
12h 03m
Waxing Crescent, 40% of the Moon is Illuminated
Mar 18
Waxing Crescent
Mar 19
First Quarter
Mar 27
Full
Apr 3
Last Quarter
Apr 10
New

Hourly Weather History & Observations

Time (EDT) Temp. Windchill Dew Point Humidity Pressure Visibility Wind Dir Wind Speed Gust Speed Precip Events Conditions
12:00 AM 8.6 °F - -4.0 °F 57% 30.38 in 25.0 mi West 2.3 mph - N/A   Clear
1:00 AM 3.2 °F -6.2 °F -4.0 °F 72% 30.40 in 25.0 mi West 4.6 mph - N/A   Clear
2:00 AM 3.2 °F - -5.8 °F 66% 30.42 in 25.0 mi Calm Calm - N/A   Clear
3:00 AM 5.0 °F - -4.0 °F 66% 30.42 in 25.0 mi Calm Calm - N/A   Clear
4:00 AM 3.2 °F - -5.8 °F 66% 30.43 in 25.0 mi Calm Calm - N/A   Clear
5:00 AM 1.4 °F -6.2 °F -7.6 °F 66% 30.43 in 25.0 mi NNE 3.5 mph - N/A   Clear
6:00 AM 1.4 °F -6.2 °F -7.6 °F 66% 30.45 in 25.0 mi North 3.5 mph - N/A   Clear
7:00 AM -0.4 °F - -7.6 °F 72% 30.46 in 45.0 mi NNE 2.3 mph - N/A   Clear
8:00 AM 1.4 °F -6.2 °F -7.6 °F 66% 30.45 in 45.0 mi NE 3.5 mph - N/A   Clear
9:00 AM 6.8 °F -2.0 °F -4.0 °F 61% 30.49 in 30.0 mi NE 4.6 mph - N/A   Clear
10:00 AM 14.0 °F 5.1 °F -2.2 °F 49% 30.46 in 30.0 mi NNE 5.8 mph - N/A   Partly Cloudy
11:00 AM 17.6 °F 10.7 °F -2.2 °F 42% 30.48 in 40.0 mi NNE 4.6 mph - N/A   Mostly Cloudy
12:00 PM 21.2 °F 16.4 °F -4.0 °F 33% 30.46 in 40.0 mi SE 3.5 mph - N/A   Mostly Cloudy
1:00 PM 21.2 °F - -0.4 °F 39% 30.45 in 40.0 mi Calm Calm - N/A   Mostly Cloudy
2:00 PM 23.0 °F 14.7 °F 1.4 °F 39% 30.40 in 30.0 mi North 6.9 mph - N/A   Mostly Cloudy
3:00 PM 24.8 °F 16.9 °F 3.2 °F 40% 30.36 in 25.0 mi NE 6.9 mph - N/A   Mostly Cloudy
4:00 PM 26.6 °F 18.2 °F 5.0 °F 40% 30.33 in 25.0 mi ENE 8.1 mph - N/A   Mostly Cloudy
5:00 PM 24.8 °F 13.4 °F 6.8 °F 46% 30.31 in 25.0 mi East 12.7 mph - N/A   Overcast
6:00 PM 23.0 °F 14.7 °F 6.8 °F 50% 30.29 in 30.0 mi ENE 6.9 mph - N/A   Overcast
7:00 PM 21.2 °F 11.7 °F 6.8 °F 54% 30.25 in 25.0 mi NE 8.1 mph - N/A   Mostly Cloudy
8:00 PM 19.4 °F 10.4 °F 5.0 °F 54% 30.25 in 25.0 mi NE 6.9 mph - N/A   Mostly Cloudy
9:00 PM 19.4 °F 10.4 °F 5.0 °F 54% 30.24 in 25.0 mi ENE 6.9 mph 18.4 mph N/A   Mostly Cloudy
10:00 PM 19.4 °F 6.6 °F 5.0 °F 54% 30.20 in 25.0 mi ENE 12.7 mph - N/A   Mostly Cloudy
11:00 PM 17.6 °F 6.4 °F 5.0 °F 58% 30.16 in 25.0 mi ENE 9.2 mph 18.4 mph N/A   Overcast